Weather Roundup
Issued by NWS

Home | Current Version | Previous Version | Graphics & Text | Print | Product List | Glossary Off
Versions: 1 2 3 4 5 6 7 8 9 10 11 12 13 14 15 16 17 18 19 20 21 22 23 24 25 26 27 28 29 30 31 32 33 34 35 36 37 38 39 40 41 42 43 44 45 46 47 48 49 50

000
NZUS93 KARX 311210
HRRWXR

CURRENT HOURLY OBSERVATIONS ACROSS
MUCH OF THE UPPER MISSISSIPPI VALLEY
NATIONAL WEATHER SERVICE LA CROSSE WI
700 AM CDT FRI JUL 31 2015


...SOUTHEAST MINNESOTA...


CITY           SKY/WX    TMP DP  RH WIND       PRES   REMARKS
ROCHESTER      CLEAR     62  59  90 W8        30.10R
ROCHESTER/MAYO FAIR      65  58  79 W9        30.08R
WINONA         SUNNY     70  61  73 NW6       30.04R
AUSTIN         CLEAR     66  59  77 W8        30.10R
ALBERT LEA     CLEAR     64  59  82 W3        30.11S
DODGE CENTER   CLEAR     63  57  82 W8        30.10R
PRESTON        CLEAR     63  58  83 NW9       30.09R
OWATONNA       CLEAR     61  57  88 CALM      30.10R
FARIBAULT      CLEAR     64  59  82 W5        30.09S
$$

...ELSEWHERE IN MINNESOTA...


CITY           SKY/WX    TMP DP  RH WIND       PRES   REMARKS
MINNEAPOLIS    CLEAR     67  55  65 W8        30.06R
INTNL FALLS    SUNNY     56  53  90 W8        29.94R
DULUTH         SUNNY     62  52  69 W13       29.96R
RED WING       CLEAR     63  61  94 W3        30.04R
REDWOOD FALLS  CLEAR     61  56  83 NW7       30.12R
MANKATO        CLEAR     63  55  77 NW6       30.11R
WORTHINGTON    CLOUDY    61  54  77 W3        30.16R
FAIRMONT       CLOUDY    66  55  68 NW5       30.13R
$$

...SOUTHWEST WISCONSIN...


CITY           SKY/WX    TMP DP  RH WIND       PRES   REMARKS
LA CROSSE      SUNNY     69  60  73 NW9       30.03R
PRAIRIE DU CHI MOSUNNY   66  62  87 CALM      30.05R
BOSCOBEL       SUNNY     65  62  90 CALM      30.05R
LONE ROCK      SUNNY     61  58  90 CALM      30.04R
PLATTEVILLE    MOSUNNY   66  65  96 W5        30.06R
FORT MC COY    SUNNY     62  59  88 SW3       30.03R
CAMP DOUGLAS   SUNNY     64  64 100 W8        30.00R
VIROQUA        FAIR      62  62  97 SW6       30.05R
WIS DELLS      SUNNY     65  58  78 SW3       30.02R
$$

...ELSEWHERE IN WISCONSIN...


CITY           SKY/WX    TMP DP  RH WIND       PRES   REMARKS
MILWAUKEE      MOSUNNY   70  57  63 W7        29.99R
MADISON        MOSUNNY   68  59  73 W6        30.01R
GREEN BAY      SUNNY     67  59  75 W12       29.93R
EAU CLAIRE     SUNNY     64  56  75 W6        30.00R
BLACK RVR FLS  FAIR      61  61 100 W5        30.01R
MEDFORD        MOSUNNY   60  56  86 W8        29.99R
WAUSAU         SUNNY     64  56  75 NW15      29.95R
WIS RAPIDS     SUNNY     65  57  75 W8        30.00R
MARSHFIELD     SUNNY     64  56  75 W8        29.99R
RICE LAKE      SUNNY     61  55  81 W6        30.02R
$$

...NORTHEAST IOWA...


CITY           SKY/WX    TMP DP  RH WIND       PRES   REMARKS
DECORAH        SUNNY     64  63  94 W3        30.07R
MASON CITY     CLEAR     63  61  93 NW5       30.13R
CHARLES CITY   CLEAR     64  64 100 W8        30.11R
OELWEIN          N/A    N/A N/A N/A MISG      30.10R
$$

...ELSEWHERE IN IOWA...


CITY           SKY/WX    TMP DP  RH WIND       PRES   REMARKS
DES MOINES     PTCLDY    71  63  75 CALM      30.12R
IOWA CITY      CLEAR     67  64  90 W6        30.10R
FORT DODGE     MOCLDY    64  61  88 CALM      30.14S
$$

...NORTHERN ILLINOIS...


CITY           SKY/WX    TMP DP  RH WIND       PRES   REMARKS
CHICAGO-OHARE  MOSUNNY   70  59  68 W9        30.01S
CHICAGO-MIDWAY MOSUNNY   72  59  63 SW8       30.02R
MOLINE         SUNNY     68  64  87 W5        30.07R
ROCKFORD       PTSUNNY   69  63  81 CALM      30.05R
PEORIA         SUNNY     71  63  75 W5        30.09R
$$

NOTE: "FAIR" INDICATES FEW OR NO CLOUDS BELOW 12,000 FEET WITH NO
SIGNIFICANT WEATHER AND/OR OBSTRUCTIONS TO VISIBILITY. WIND
SPEEDS ARE IN MILES-PER-HOUR.



USA.gov is the U.S. government's official web portal to all federal, state and local government web resources and services.